TimeHST,TemperatureF,Dew PointF,Humidity,Sea Level PressureIn,VisibilityMPH,Wind Direction,Wind SpeedMPH,Gust SpeedMPH,PrecipitationIn,Events,Conditions,WindDirDegrees,DateUTC
12:56 AM,73.0,64.0,73,30.00,10.0,East,4.6,-,N/A,,Partly Cloudy,90,2013-09-19 10:56:00
1:56 AM,73.9,63.0,68,29.99,10.0,ENE,4.6,-,N/A,,Mostly Cloudy,70,2013-09-19 11:56:00
2:56 AM,75.0,64.0,69,29.98,10.0,Calm,Calm,-,0.00,Rain,Light Rain,0,2013-09-19 12:56:00
3:56 AM,73.9,64.0,71,29.97,10.0,ESE,3.5,-,0.00,,Mostly Cloudy,120,2013-09-19 13:56:00
4:56 AM,75.0,64.9,71,29.97,10.0,ESE,3.5,-,N/A,,Mostly Cloudy,110,2013-09-19 14:56:00
5:56 AM,73.9,64.9,73,29.98,10.0,Calm,Calm,-,N/A,,Overcast,0,2013-09-19 15:56:00
6:56 AM,73.0,64.0,73,30.00,10.0,Calm,Calm,-,N/A,,Clear,0,2013-09-19 16:56:00
7:56 AM,80.1,63.0,56,30.02,10.0,Calm,Calm,-,N/A,,Clear,0,2013-09-19 17:56:00
8:56 AM,81.0,66.0,60,30.04,10.0,SW,4.6,-,N/A,,Clear,230,2013-09-19 18:56:00
9:56 AM,82.9,64.9,54,30.04,10.0,NNW,5.8,-,N/A,,Clear,330,2013-09-19 19:56:00
10:56 AM,84.0,64.9,53,30.05,10.0,WNW,8.1,-,N/A,,Clear,300,2013-09-19 20:56:00
11:56 AM,86.0,66.9,53,30.04,10.0,NNW,12.7,-,N/A,,Partly Cloudy,340,2013-09-19 21:56:00
12:56 PM,84.9,70.0,61,30.01,10.0,NW,9.2,-,N/A,,Clear,310,2013-09-19 22:56:00
1:56 PM,84.0,69.1,61,30.00,10.0,West,5.8,-,N/A,,Clear,280,2013-09-19 23:56:00
2:56 PM,84.9,70.0,61,29.99,10.0,WSW,9.2,-,N/A,,Clear,240,2013-09-20 00:56:00
3:56 PM,84.9,70.0,61,29.99,10.0,West,9.2,-,N/A,,Clear,260,2013-09-20 01:56:00
4:56 PM,84.0,68.0,58,29.99,10.0,West,8.1,-,N/A,,Mostly Cloudy,270,2013-09-20 02:56:00
5:56 PM,82.9,68.0,60,29.99,10.0,WNW,3.5,-,N/A,,Mostly Cloudy,290,2013-09-20 03:56:00
6:56 PM,81.0,68.0,65,30.00,10.0,Calm,Calm,-,N/A,,Clear,0,2013-09-20 04:56:00
7:56 PM,79.0,66.0,64,30.01,10.0,NE,4.6,-,N/A,,Clear,50,2013-09-20 05:56:00
8:56 PM,78.1,63.0,60,30.04,10.0,East,3.5,-,N/A,,Clear,80,2013-09-20 06:56:00
9:56 PM,75.9,64.9,69,30.06,10.0,East,3.5,-,N/A,,Clear,80,2013-09-20 07:56:00
10:56 PM,75.0,62.1,64,30.05,10.0,ESE,4.6,-,N/A,,Clear,110,2013-09-20 08:56:00
11:56 PM,75.0,60.1,60,30.05,10.0,Calm,Calm,-,N/A,,Clear,0,2013-09-20 09:56:00